Погода в Мирнограде

Украина / Донецкая область     48°17′27″N   37°16′05″E
темп.,
°C
ветер,
м/с
пор.,
м/с
влажн.,
%
обл.,
%
осадки,
мм/ч
давл.,
гПа
погр.,
м
13 июня, вс
вс1300:00+15зюз33900 0.0 101133
03:00+14зюз33930 0.0 101148
06:00+15зюз23900 0.0 1011101
09:00+21юз23690 0.1 1011521
12:00+24зюз355247 0.3 10112010
15:00+22ююз356567 0.4 1011633
18:00+20ю367373 0.2 1011203
21:00+18ю227617 0.2 101124
14 июня, пн
пн1400:00+15ю34863 0.0 101255
03:00+14ююв338836 0.0 101236
06:00+16юв348644 0.0 1012103
09:00+21юв456696 0.0 1013584
12:00+24ююв3459100 0.5 10131421
15:00+25вюв2352100 0.8 10131705
18:00+21св3372100 0.3 101348
21:00+20всв337788 0.4 101345
15 июня, вт
вт1500:00+18всв348138 0.0 101357
03:00+17всв338065 0.0 101234
06:00+17св368521 0.0 1012137
09:00+22св45701 0.4 1012439
12:00+25всв345196 0.8 10111533
15:00+25ссв335086 0.8 10101932
18:00+22св457493 0.9 1009418
21:00+18всв2389100 3.2 100929
16 июня, ср
ср1600:00+16юз4797100 3.4 1010219
03:00+17зсз1295100 6.7 100934
06:00+17ююз1194100 0.5 100959
09:00+19зюз2283100 1.4 1010370
12:00+22юз2270100 0.8 1010995
15:00+23зюз23617 1.9 10101233
18:00+22юз3469100 1.0 1010428
21:00+17ююз358891 1.6 101277
17 июня, чт
чт1700:00+16ююз369291 0.0 1012112
03:00+15ююз239226 0.1 101254
06:00+16ююв11885 0.0 101358
09:00+21всв336997 0.0 1013649
12:00+23в5661100 0.0 10141333
15:00+18ююв3492100 3.4 1015253
18:00+17ссв5897100 14.1 1014214
21:00+17с5999100 31.1 1014330